Weather History for Mammoth, CA

Change the Weather History Date:

Wednesday, December 25, 2013

  Actual Average Record
Temperature  
Mean Temperature 28 °F -  
Max Temperature 51 °F 37 °F 53 °F (2011)
Min Temperature 6 °F 21 °F 1 °F (2011)
Degree Days  
Heating Degree Days 36    
Moisture  
Dew Point 3 °F    
Average Humidity 40    
Maximum Humidity 79    
Minimum Humidity 10    
Precipitation  
Precipitation 0.00 in - - ()
Sea Level Pressure  
Sea Level Pressure 30.48 in    
Wind  
Wind Speed 3 mph (NNW)    
Max Wind Speed 9 mph    
Max Gust Speed -    
Visibility 10 miles    
Events      
Averages and records for this station are not official NWS values.
T = Trace of Precipitation, MM = Missing Value Source: NWS Daily Summary

Daily Weather History Graph

Daily Weather History Graph

Search for Another Location

Airport:

Trip Planner

Search our weather history database for the weather conditions in past years. The results will help you decide how hot, cold, wet, or windy it might be!

Date:

Astronomy

Dec. 25, 2013 Rise Set
Actual Time 7:08 AM PST 4:42 PM PST
Civil Twilight 6:39 AM PST 5:12 PM PST
Nautical Twilight 6:06 AM PST 5:45 PM PST
Astronomical Twilight 5:34 AM PST 6:16 PM PST
Moon No Moon Rise 11:43 AM PST (12/25)
Length of Visible Light 10h 32m
Length of Day
9h 34m
Waning Gibbous, 47% of the Moon is Illuminated
Dec 25
Waning Gibbous
Jan 1
New
Jan 7
First Quarter
Jan 15
Full
Jan 23
Last Quarter

Hourly Weather History & Observations

Time (PST) Temp. Windchill Dew Point Humidity Pressure Visibility Wind Dir Wind Speed Gust Speed Precip Events Conditions
12:15 AM 30.2 °F 21.9 °F 12.2 °F 47% 30.49 in 10.0 mi West 9.2 mph - N/A   Clear
12:35 AM 26.6 °F 21.2 °F 14.0 °F 59% 30.49 in 10.0 mi North 4.6 mph - N/A   Clear
12:55 AM 24.8 °F - 12.2 °F 59% 30.49 in 10.0 mi North - - N/A   Clear
1:15 AM 24.8 °F 20.5 °F 12.2 °F 59% 30.49 in 10.0 mi NW 3.5 mph - N/A   Clear
1:35 AM 24.8 °F 16.9 °F 12.2 °F 59% 30.49 in 10.0 mi NNW 6.9 mph - N/A   Clear
1:55 AM 21.2 °F 16.4 °F 10.4 °F 63% 30.49 in 10.0 mi NNW 3.5 mph - N/A   Clear
2:15 AM 21.2 °F - 8.6 °F 58% 30.50 in 10.0 mi Calm Calm - N/A   Clear
2:35 AM 21.2 °F 14.9 °F 8.6 °F 58% 30.50 in 10.0 mi North 4.6 mph - N/A   Clear
2:55 AM 21.2 °F 14.9 °F 6.8 °F 54% 30.50 in 10.0 mi North 4.6 mph - N/A   Clear
3:15 AM 21.2 °F - 5.0 °F 50% 30.50 in 10.0 mi North - - N/A   Clear
3:35 AM 19.4 °F - 3.2 °F 49% 30.50 in 10.0 mi Calm Calm - N/A   Clear
3:55 AM 14.0 °F 6.5 °F 5.0 °F 67% 30.49 in 10.0 mi North 4.6 mph - N/A   Clear
4:15 AM 14.0 °F - 3.2 °F 62% 30.50 in 10.0 mi Calm Calm - N/A   Clear
4:35 AM 14.0 °F - 1.4 °F 57% 30.49 in 10.0 mi Calm Calm - N/A   Clear
4:55 AM 14.0 °F 6.5 °F 1.4 °F 57% 30.49 in 10.0 mi North 4.6 mph - N/A   Clear
5:15 AM 14.0 °F - 3.2 °F 62% 30.50 in 10.0 mi Calm Calm - N/A   Clear
5:35 AM 14.0 °F - 1.4 °F 57% 30.49 in 10.0 mi Calm Calm - N/A   Clear
5:55 AM 6.8 °F -3.5 °F -0.4 °F 72% 30.50 in 10.0 mi NNW 5.8 mph - N/A   Clear
6:15 AM 6.8 °F - 1.4 °F 79% 30.50 in 10.0 mi Calm Calm - N/A   Clear
6:35 AM 14.0 °F - 1.4 °F 57% 30.50 in 10.0 mi Calm Calm - N/A   Clear
6:55 AM 8.6 °F - -0.4 °F 67% 30.50 in 10.0 mi Calm Calm - N/A   Clear
7:15 AM 6.8 °F -0.1 °F -0.4 °F 72% 30.51 in 10.0 mi NNW 3.5 mph - N/A   Clear
7:35 AM 6.8 °F -2.0 °F -0.4 °F 72% 30.51 in 10.0 mi North 4.6 mph - N/A   Clear
7:55 AM 10.4 °F - 3.2 °F 73% 30.52 in 10.0 mi Calm Calm - N/A   Clear
8:15 AM 19.4 °F - 1.4 °F 46% 30.52 in 10.0 mi North - - N/A   Clear
8:35 AM 23.0 °F - 1.4 °F 39% 30.52 in 10.0 mi Calm Calm - N/A   Clear
8:55 AM 26.6 °F - 1.4 °F 34% 30.53 in 10.0 mi Calm Calm - N/A   Clear
9:15 AM 26.6 °F - 6.8 °F 43% 30.53 in 10.0 mi Calm Calm - N/A   Clear
9:35 AM 32.0 °F - 3.2 °F 30% 30.53 in 10.0 mi Calm Calm - N/A   Clear
9:55 AM 33.8 °F - 3.2 °F 28% 30.53 in 10.0 mi Calm Calm - N/A   Clear
10:15 AM 33.8 °F 27.7 °F 10.4 °F 38% 30.53 in 10.0 mi SE 6.9 mph - N/A   Clear
10:35 AM 35.6 °F 29.9 °F 8.6 °F 33% 30.52 in 10.0 mi SE 6.9 mph - N/A   Clear
10:55 AM 39.2 °F 34.2 °F 6.8 °F 26% 30.51 in 10.0 mi SSE 6.9 mph - N/A   Clear
11:15 AM 41.0 °F 39.0 °F 5.0 °F 23% 30.51 in 10.0 mi SSE 3.5 mph - N/A   Clear
11:35 AM 42.8 °F 38.6 °F 5.0 °F 21% 30.49 in 10.0 mi SE 6.9 mph - N/A   Clear
11:55 AM 46.4 °F 43.5 °F 3.2 °F 17% 30.49 in 7.0 mi SE 5.8 mph - N/A   Clear
12:15 PM 48.2 °F - -0.4 °F 13% 30.48 in 10.0 mi ESE 4.6 mph - N/A   Clear
12:35 PM 48.2 °F - -4.0 °F 11% 30.46 in 10.0 mi SSE 4.6 mph - N/A   Clear
12:55 PM 50.0 °F - -2.2 °F 12% 30.46 in 10.0 mi Calm Calm - N/A   Clear
1:15 PM 50.0 °F - -4.0 °F 11% 30.45 in 10.0 mi Calm Calm - N/A   Clear
1:35 PM 51.8 °F - -4.0 °F 10% 30.44 in 10.0 mi ESE 5.8 mph - N/A   Clear
1:55 PM 50.0 °F - -4.0 °F 11% 30.43 in 10.0 mi Calm Calm - N/A   Clear
2:15 PM 51.8 °F - -4.0 °F 10% 30.43 in 10.0 mi East 3.5 mph - N/A   Clear
2:35 PM 51.8 °F - -4.0 °F 10% 30.43 in 10.0 mi Calm Calm - N/A   Clear
2:55 PM 50.0 °F - -5.8 °F 10% 30.43 in 10.0 mi Calm Calm - N/A   Clear
3:15 PM 51.8 °F - -4.0 °F 10% 30.43 in 10.0 mi SSE 4.6 mph - N/A   Clear
3:35 PM 50.0 °F - -0.4 °F 13% 30.43 in 10.0 mi SSW 3.5 mph - N/A   Clear
3:55 PM 41.0 °F 38.0 °F -2.2 °F 16% 30.43 in 10.0 mi SW 4.6 mph - N/A   Clear
4:15 PM 41.0 °F - -0.4 °F 18% 30.43 in 10.0 mi Calm Calm - N/A   Clear
4:35 PM 35.6 °F - -0.4 °F 22% 30.43 in 10.0 mi Calm Calm - N/A   Clear
4:55 PM 33.8 °F - -0.4 °F 23% 30.43 in 10.0 mi Calm Calm - N/A   Clear
5:15 PM 33.8 °F - 1.4 °F 25% 30.43 in 10.0 mi Calm Calm - N/A   Clear
5:35 PM 32.0 °F 27.5 °F 3.2 °F 30% 30.44 in 10.0 mi WNW 4.6 mph - N/A   Clear
5:55 PM 32.0 °F 28.7 °F 3.2 °F 30% 30.44 in 10.0 mi West 3.5 mph - N/A   Clear
6:15 PM 28.4 °F - 5.0 °F 37% 30.45 in 10.0 mi Calm Calm - N/A   Clear
6:35 PM 28.4 °F - 5.0 °F 37% 30.46 in 10.0 mi Calm Calm - N/A   Clear
6:55 PM 28.4 °F - 5.0 °F 37% 30.46 in 10.0 mi Calm Calm - N/A   Clear
7:15 PM 28.4 °F - 5.0 °F 37% 30.46 in 10.0 mi Calm Calm - N/A   Clear
7:35 PM 28.4 °F - 5.0 °F 37% 30.47 in 10.0 mi Calm Calm - N/A   Clear
7:55 PM 24.8 °F - 5.0 °F 43% 30.47 in 10.0 mi North - - N/A   Clear
8:15 PM 24.8 °F - 5.0 °F 43% 30.47 in 10.0 mi North - - N/A   Clear
8:35 PM 26.6 °F 22.6 °F 5.0 °F 40% 30.47 in 10.0 mi North 3.5 mph - N/A   Clear
8:55 PM 24.8 °F - 3.2 °F 40% 30.48 in 10.0 mi North - - N/A   Clear
9:15 PM 24.8 °F 19.1 °F 3.2 °F 40% 30.48 in 10.0 mi North 4.6 mph - N/A   Clear
9:35 PM 23.0 °F 18.4 °F 3.2 °F 43% 30.48 in 10.0 mi NNW 3.5 mph - N/A   Clear
9:55 PM 21.2 °F - 3.2 °F 46% 30.48 in 10.0 mi Calm Calm - N/A   Clear
10:15 PM 21.2 °F 14.9 °F 3.2 °F 46% 30.48 in 10.0 mi NNW 4.6 mph - N/A   Clear
10:35 PM 21.2 °F 16.4 °F 3.2 °F 46% 30.48 in 10.0 mi NNW 3.5 mph - N/A   Clear
10:55 PM 21.2 °F 16.4 °F 3.2 °F 46% 30.48 in 10.0 mi NW 3.5 mph - N/A   Clear
11:15 PM 19.4 °F - 3.2 °F 49% 30.48 in 10.0 mi Calm Calm - N/A   Clear
11:35 PM 17.6 °F - 3.2 °F 53% 30.48 in 10.0 mi Calm Calm - N/A   Clear
11:55 PM 15.8 °F - 1.4 °F 53% 30.48 in 10.0 mi Calm Calm - N/A   Clear